GW4244 Weather Reports


time (UTC)temp
C
wind
direction
speed
KPH
gust
KPH
rain 1hr
cm
rain 24hr
cm
rain mn
cm
humidity
%
barometer
mb
20260510131949 18 99 0.0 0.0 0.00 0.00 0.00 89 1015.5
20260510131447 18 99 0.0 0.0 0.00 0.00 0.00 89 1015.6
20260510130944 18 99 0.0 0.0 0.00 0.00 0.00 87 1015.6
20260510130440 18 98 0.0 0.0 0.00 0.00 0.00 85 1015.4
20260510125938 18 98 0.0 0.0 0.00 0.00 0.00 84 1015.5
20260510125433 18 98 0.0 0.0 0.00 0.00 0.00 83 1015.4
20260510124930 18 98 0.0 0.0 0.00 0.00 0.00 83 1015.2
20260510124427 18 95 0.0 0.0 0.00 0.00 0.00 84 1014.9
20260510123924 18 95 0.0 0.0 0.00 0.00 0.00 86 1015.1
20260510123419 17 95 0.0 0.0 0.00 0.00 0.00 88 1014.7
20260510122916 16 95 0.0 0.0 0.00 0.00 0.00 88 1014.6
20260510122411 16 95 0.0 0.0 0.00 0.00 0.00 89 1014.1
20260510121908 16 95 1.6 1.6 0.00 0.00 0.00 89 1014.0
20260510121405 16 95 0.0 0.0 0.00 0.00 0.00 89 1013.9
20260510120902 16 95 0.0 0.0 0.00 0.00 0.00 89 1014.0
20260510120359 15 95 0.0 0.0 0.00 0.00 0.00 89 1013.9
20260510115855 15 95 0.0 0.0 0.00 0.00 0.00 89 1013.9
20260510115351 15 95 0.0 0.0 0.00 0.00 0.00 89 1014.1
20260510114847 15 95 0.0 0.0 0.00 0.00 0.00 90 1014.1
20260510114345 15 105 0.0 0.0 0.00 0.00 0.00 89 1014.0
20260510113845 15 136 0.0 0.0 0.00 0.00 0.00 89 1013.8
20260510113341 15 143 0.0 0.0 0.00 0.00 0.00 88 1013.6
20260510112838 15 132 0.0 0.0 0.00 0.00 0.00 88 1013.6
20260510112335 15 131 0.0 0.0 0.00 0.00 0.00 87 1013.4
20260510111831 15 132 0.0 0.0 0.00 0.00 0.00 86 1013.3
20260510111328 16 132 0.0 0.0 0.00 0.00 0.00 85 1013.1
20260510110822 16 151 0.0 0.0 0.00 0.00 0.00 84 1012.9
20260510110320 16 102 0.0 0.0 0.00 0.00 0.00 85 1012.9
20260510105815 16 58 0.0 0.0 0.00 0.00 0.00 86 1012.7
20260510105310 16 92 0.0 1.6 0.00 0.00 0.00 86 1012.4
20260510104807 16 67 1.6 1.6 0.00 0.00 0.00 87 1012.6
20260510104305 16 67 0.0 0.0 0.00 0.00 0.00 86 1012.7
20260510103801 16 67 0.0 0.0 0.00 0.00 0.00 85 1012.9
20260510103258 16 67 0.0 0.0 0.00 0.00 0.00 86 1012.7
20260510102757 16 68 0.0 0.0 0.00 0.00 0.00 85 1012.6
20260510102254 16 96 0.0 0.0 0.00 0.00 0.00 86 1012.9
20260510101751 16 97 0.0 0.0 0.00 0.00 0.00 86 1012.6
20260510101250 16 94 0.0 0.0 0.00 0.00 0.00 86 1012.6
20260510100745 16 95 0.0 0.0 0.00 0.00 0.00 86 1012.6
20260510100244 16 94 0.0 0.0 0.00 0.00 0.00 86 1012.7
20260510095744 16 94 0.0 0.0 0.00 0.00 0.00 87 1012.5
20260510095239 16 105 0.0 0.0 0.00 0.00 0.00 87 1012.2
20260510094738 16 110 1.6 1.6 0.00 0.00 0.00 86 1012.2
20260510094234 16 110 0.0 0.0 0.00 0.00 0.00 86 1012.1
20260510093730 16 110 0.0 0.0 0.00 0.00 0.00 86 1012.0
20260510093227 16 110 0.0 0.0 0.00 0.00 0.00 85 1012.1
20260510092723 16 110 0.0 0.0 0.00 0.00 0.00 85 1011.8
20260510092219 16 110 0.0 0.0 0.00 0.00 0.00 85 1011.7
20260510091715 16 111 0.0 0.0 0.00 0.00 0.00 85 1011.4
20260510091212 17 110 0.0 0.0 0.00 0.00 0.00 84 1011.5
20260510090708 16 119 1.6 1.6 0.00 0.00 0.00 84 1011.3
20260510090205 16 120 0.0 0.0 0.00 0.00 0.00 84 1011.5
20260510085700 16 150 0.0 0.0 0.00 0.00 0.00 85 1011.6
20260510085156 17 150 0.0 0.0 0.00 0.00 0.00 84 1011.4
20260510084652 17 110 0.0 1.6 0.00 0.00 0.00 85 1011.3
20260510084149 17 121 0.0 0.0 0.00 0.00 0.00 85 1011.2
20260510083645 17 82 0.0 0.0 0.00 0.00 0.00 85 1011.4
20260510083142 17 78 0.0 0.0 0.00 0.00 0.00 85 1011.5
20260510082638 17 78 0.0 0.0 0.00 0.00 0.00 85 1011.4
20260510082134 17 78 0.0 0.0 0.00 0.00 0.00 85 1011.3
20260510081629 17 97 1.6 1.6 0.00 0.00 0.00 86 1011.2
20260510081125 17 97 1.6 1.6 0.00 0.00 0.00 85 1011.0
20260510080619 17 338 1.6 3.2 0.00 0.00 0.00 87 1011.1
20260510080116 17 224 4.8 4.8 0.00 0.00 0.00 88 1010.6
20260510075613 17 123 0.0 0.0 0.00 0.00 0.00 87 1010.4
20260510075110 17 132 0.0 0.0 0.00 0.00 0.00 87 1010.4
20260510074602 17 132 0.0 0.0 0.00 0.00 0.00 86 1010.5
20260510074057 17 132 0.0 0.0 0.00 0.00 0.00 85 1010.4
20260510073554 17 132 0.0 0.0 0.00 0.00 0.00 85 1010.3
20260510073051 17 132 0.0 0.0 0.00 0.00 0.00 86 1010.2
20260510072547 17 132 0.0 0.0 0.00 0.00 0.00 85 1010.6
20260510072043 17 132 0.0 0.0 0.00 0.00 0.00 85 1010.8
20260510071539 17 141 0.0 0.0 0.00 0.00 0.00 85 1010.8
20260510071038 17 144 0.0 1.6 0.00 0.00 0.00 85 1011.0
20260510070534 17 145 0.0 0.0 0.00 0.00 0.00 86 1011.0
20260510070031 17 136 0.0 0.0 0.00 0.00 0.00 87 1010.7
20260510065527 17 208 0.0 0.0 0.00 0.00 0.00 88 1010.9
20260510065023 17 208 0.0 1.6 0.00 0.00 0.00 87 1010.9
20260510064520 17 214 3.2 3.2 0.00 0.00 0.00 86 1011.1
20260510064018 17 195 1.6 1.6 0.00 0.00 0.00 86 1011.2
20260510063514 17 122 0.0 0.0 0.00 0.00 0.00 85 1011.4
20260510063011 17 121 0.0 1.6 0.00 0.00 0.00 84 1011.5
20260510062507 18 121 1.6 1.6 0.00 0.00 0.00 83 1011.8
20260510062002 18 135 0.0 0.0 0.00 0.00 0.00 83 1012.0
20260510061459 18 63 0.0 0.0 0.00 0.00 0.00 84 1012.2
20260510060955 17 80 0.0 0.0 0.00 0.00 0.00 86 1012.3
20260510060452 17 211 1.6 1.6 0.00 0.00 0.00 88 1012.4
20260510055948 17 209 0.0 0.0 0.00 0.00 0.00 87 1012.3
20260510055444 17 209 1.6 1.6 0.00 0.00 0.00 87 1012.3
20260510054943 17 209 1.6 1.6 0.00 0.00 0.00 87 1012.4
20260510054437 17 207 1.6 1.6 0.00 0.00 0.00 87 1012.6
20260510053932 18 196 3.2 3.2 0.00 0.00 0.00 86 1012.3
20260510053428 18 148 1.6 1.6 0.00 0.00 0.00 79 1012.5
20260510052925 18 71 0.0 0.0 0.00 0.00 0.00 78 1012.5
20260510052421 18 71 0.0 0.0 0.00 0.00 0.00 78 1012.5
20260510051917 18 71 0.0 0.0 0.00 0.00 0.00 78 1012.7
20260510051414 18 71 0.0 0.0 0.00 0.00 0.00 78 1012.5
20260510050910 18 40 0.0 0.0 0.00 0.00 0.00 79 1012.7
20260510050407 18 72 0.0 0.0 0.00 0.00 0.00 79 1012.5
20260510045904 18 66 0.0 0.0 0.00 0.00 0.00 81 1012.3
20260510045401 18 105 0.0 1.6 0.00 0.00 0.00 83 1012.4
20260510044858 18 107 0.0 0.0 0.00 0.00 0.00 81 1012.3
20260510044355 18 107 0.0 1.6 0.00 0.00 0.00 82 1012.1
20260510043851 17 116 0.0 1.6 0.00 0.00 0.00 83 1011.6
20260510043347 17 117 0.0 0.0 0.00 0.00 0.00 84 1011.6
20260510042846 17 160 0.0 0.0 0.00 0.00 0.00 87 1011.3
20260510042341 17 169 0.0 0.0 0.00 0.00 0.00 87 1011.3
20260510041837 17 169 0.0 0.0 0.00 0.00 0.00 86 1011.1
20260510041334 17 169 0.0 0.0 0.00 0.00 0.00 86 1011.1
20260510040832 17 169 0.0 0.0 0.00 0.00 0.00 86 1011.1
20260510040328 17 169 0.0 0.0 0.00 0.00 0.00 86 1011.2
20260510035824 17 169 0.0 0.0 0.00 0.00 0.00 85 1011.0
20260510035320 17 169 0.0 0.0 0.00 0.00 0.00 84 1011.2
20260510034816 17 176 0.0 1.6 0.00 0.00 0.00 83 1011.0
20260510034314 17 198 0.0 0.0 0.00 0.00 0.00 82 1011.2
20260510033810 17 198 0.0 0.0 0.00 0.00 0.00 81 1011.0
20260510033307 18 208 1.6 1.6 0.00 0.00 0.00 81 1011.3
20260510032804 18 152 0.0 0.0 0.00 0.00 0.00 79 1011.3
20260510032300 18 152 0.0 0.0 0.00 0.00 0.00 79 1011.3
20260510031756 18 153 0.0 0.0 0.00 0.00 0.00 80 1011.6
20260510031252 17 198 0.0 0.0 0.00 0.00 0.00 82 1011.5
20260510030750 17 198 0.0 0.0 0.00 0.00 0.00 83 1011.2
20260510030243 17 198 0.0 0.0 0.00 0.00 0.00 86 1011.0
20260510025740 16 198 0.0 0.0 0.00 0.00 0.00 86 1010.8
20260510025238 17 213 3.2 3.2 0.00 0.00 0.00 85 1010.8
20260510024734 18 222 6.4 6.4 0.00 0.00 0.00 81 1010.4
20260510024230 18 124 0.0 0.0 0.00 0.00 0.00 76 1010.1
20260510023726 18 124 0.0 0.0 0.00 0.00 0.00 75 1010.0
20260510023223 18 124 0.0 0.0 0.00 0.00 0.00 74 1009.9
20260510022719 18 124 0.0 0.0 0.00 0.00 0.00 73 1009.6
20260510022214 18 124 0.0 0.0 0.00 0.00 0.00 74 1009.7
20260510021709 18 124 0.0 0.0 0.00 0.00 0.00 73 1009.5
20260510021207 19 124 0.0 0.0 0.00 0.00 0.00 70 1009.6
20260510020702 20 124 0.0 0.0 0.00 0.00 0.00 69 1009.4
20260510020157 20 124 0.0 0.0 0.00 0.00 0.00 67 1009.3
20260510015653 20 124 0.0 0.0 0.00 0.00 0.00 66 1009.2
20260510015150 20 124 0.0 0.0 0.00 0.00 0.00 66 1009.0
20260510014649 20 124 0.0 0.0 0.00 0.00 0.00 66 1009.1
20260510014147 20 124 0.0 0.0 0.00 0.00 0.00 65 1008.8
20260510013642 20 124 0.0 0.0 0.00 0.00 0.00 64 1008.7
20260510013138 20 124 0.0 0.0 0.00 0.00 0.00 64 1008.5
20260510012638 21 124 0.0 0.0 0.00 0.00 0.00 61 1008.6
20260510012134 21 124 0.0 0.0 0.00 0.00 0.00 61 1008.4
20260510011634 22 124 0.0 0.0 0.00 0.00 0.00 58 1008.4
20260510011130 22 124 0.0 0.0 0.00 0.00 0.00 59 1008.4
20260510010626 23 124 0.0 0.0 0.00 0.00 0.00 56 1008.2
20260510010124 23 124 0.0 0.0 0.00 0.00 0.00 54 1008.1
20260510005619 24 124 0.0 0.0 0.00 0.00 0.00 50 1007.9
20260510005117 25 124 0.0 0.0 0.00 0.00 0.00 48 1008.1
20260510004615 26 124 0.0 0.0 0.00 0.00 0.00 46 1008.2
20260510004113 27 124 0.0 0.0 0.00 0.00 0.00 45 1008.0
20260510003609 27 124 0.0 0.0 0.00 0.00 0.00 46 1008.0
20260510003105 27 124 0.0 0.0 0.00 0.00 0.00 43 1007.8
20260510002600 26 124 0.0 0.0 0.00 0.00 0.00 46 1007.9
20260510002057 26 124 0.0 0.0 0.00 0.00 0.00 43 1007.9
20260510001554 26 125 0.0 0.0 0.00 0.00 0.00 44 1007.9
20260510001053 26 125 0.0 0.0 0.00 0.00 0.00 45 1008.1
20260510000548 26 123 0.0 0.0 0.00 0.00 0.00 44 1007.8
20260510000046 26 122 0.0 1.6 0.00 0.00 0.00 44 1008.0
20260509235542 26 135 0.0 0.0 0.00 0.00 0.00 42 1008.0
20260509235039 27 129 3.2 3.2 0.00 0.00 0.00 40 1008.2
20260509234535 27 120 0.0 0.0 0.00 0.00 0.00 41 1007.9
20260509234033 27 123 0.0 0.0 0.00 0.00 0.00 40 1008.0
20260509233530 27 131 0.0 0.0 0.00 0.00 0.00 41 1008.0
20260509233027 27 126 0.0 0.0 0.00 0.00 0.00 42 1008.1
20260509232524 27 137 0.0 0.0 0.00 0.00 0.00 44 1008.2
20260509232020 27 127 0.0 0.0 0.00 0.00 0.00 47 1008.1
20260509231517 27 213 3.2 4.8 0.00 0.00 0.00 45 1008.2
20260509231015 27 128 0.0 0.0 0.00 0.00 0.00 45 1008.2
20260509230511 27 112 0.0 0.0 0.00 0.00 0.00 44 1008.3
20260509230008 27 122 0.0 1.6 0.00 0.00 0.00 45 1008.3
20260509225503 27 212 3.2 3.2 0.00 0.00 0.00 43 1008.3
20260509224959 27 153 0.0 0.0 0.00 0.00 0.00 45 1008.1
20260509224449 27 110 0.0 0.0 0.00 0.00 0.00 44 1008.5
20260509223946 27 132 0.0 0.0 0.00 0.00 0.00 45 1008.4
20260509223443 27 124 0.0 0.0 0.00 0.00 0.00 45 1008.4
20260509222941 27 212 4.8 4.8 0.00 0.00 0.00 42 1008.4
20260509222436 27 216 3.2 4.8 0.00 0.00 0.00 42 1008.5
20260509221932 28 198 0.0 1.6 0.00 0.00 0.00 45 1008.4
20260509221429 29 223 4.8 4.8 0.00 0.00 0.00 39 1008.6
20260509220924 28 140 0.0 0.0 0.00 0.00 0.00 40 1008.6
20260509220420 28 166 0.0 0.0 0.00 0.00 0.00 43 1008.6
20260509215917 28 231 4.8 6.4 0.00 0.00 0.00 40 1008.7
20260509215412 28 123 0.0 0.0 0.00 0.00 0.00 40 1008.6
20260509214910 29 129 0.0 0.0 0.00 0.00 0.00 39 1008.7
20260509214407 28 137 0.0 0.0 0.00 0.00 0.00 37 1008.7
20260509213904 28 111 0.0 0.0 0.00 0.00 0.00 38 1008.7
20260509213359 28 143 1.6 3.2 0.00 0.00 0.00 36 1008.7
20260509212857 28 122 1.6 3.2 0.00 0.00 0.00 37 1008.9
20260509212354 29 116 3.2 3.2 0.00 0.00 0.00 37 1009.0
20260509211850 28 147 3.2 3.2 0.00 0.00 0.00 39 1009.1
20260509211341 30 60 1.6 3.2 0.00 0.00 0.00 35 1009.1
20260509210837 29 148 0.0 0.0 0.00 0.00 0.00 38 1009.2
20260509210335 28 140 0.0 0.0 0.00 0.00 0.00 39 1009.1
20260509205834 30 237 1.6 3.2 0.00 0.00 0.00 40 1009.2
20260509205329 29 245 1.6 1.6 0.00 0.00 0.00 42 1009.3
20260509204826 29 128 0.0 1.6 0.00 0.00 0.00 41 1009.2
20260509204322 30 226 1.6 1.6 0.00 0.00 0.00 40 1009.4
20260509203819 30 297 3.2 3.2 0.00 0.00 0.00 36 1009.3
20260509203316 29 243 1.6 1.6 0.00 0.00 0.00 44 1009.3
20260509202812 29 195 0.0 1.6 0.00 0.00 0.00 45 1009.4
20260509202309 29 248 1.6 3.2 0.00 0.00 0.00 44 1009.3
20260509201807 28 235 3.2 3.2 0.00 0.00 0.00 44 1009.7
20260509201305 28 231 6.4 6.4 0.00 0.00 0.00 41 1009.6
20260509200801 28 77 0.0 0.0 0.00 0.00 0.00 46 1009.6
20260509200256 28 3 3.2 4.8 0.00 0.00 0.00 43 1009.7
20260509195752 27 144 0.0 0.0 0.00 0.00 0.00 44 1009.8
20260509195247 28 108 0.0 1.6 0.00 0.00 0.00 48 1010.1
20260509194742 28 232 1.6 3.2 0.00 0.00 0.00 45 1010.0
20260509194239 27 120 1.6 1.6 0.00 0.00 0.00 50 1010.0
20260509193736 28 214 4.8 6.4 0.00 0.00 0.00 49 1009.9
20260509193235 28 137 0.0 0.0 0.00 0.00 0.00 49 1009.8
20260509192732 27 308 3.2 3.2 0.00 0.00 0.00 50 1009.9
20260509192227 27 281 1.6 1.6 0.00 0.00 0.00 56 1010.0
20260509191723 27 129 0.0 0.0 0.00 0.00 0.00 49 1010.0
20260509191219 28 242 3.2 4.8 0.00 0.00 0.00 54 1010.1
20260509190715 27 2 6.4 6.4 0.00 0.00 0.00 50 1010.1
20260509190213 27 288 4.8 4.8 0.00 0.00 0.00 54 1010.0
20260509185710 27 231 4.8 4.8 0.00 0.00 0.00 53 1010.2
20260509185206 27 223 3.2 3.2 0.00 0.00 0.00 52 1010.2
20260509184704 27 344 1.6 3.2 0.00 0.00 0.00 54 1010.1
20260509184201 27 106 0.0 0.0 0.00 0.00 0.00 55 1010.2
20260509183657 27 212 1.6 1.6 0.00 0.00 0.00 48 1010.3
20260509183152 26 5 1.6 3.2 0.00 0.00 0.00 54 1010.3
20260509182648 26 108 0.0 0.0 0.00 0.00 0.00 59 1010.3
20260509182146 26 233 1.6 3.2 0.00 0.00 0.00 57 1010.4
20260509181643 26 237 3.2 3.2 0.00 0.00 0.00 55 1010.4
20260509181141 26 233 0.0 1.6 0.00 0.00 0.00 60 1010.3
20260509180637 27 252 3.2 3.2 0.00 0.00 0.00 61 1010.2
20260509180134 26 238 1.6 3.2 0.00 0.00 0.00 65 1010.5
20260509175629 26 290 1.6 1.6 0.00 0.00 0.00 65 1010.7
20260509175127 25 237 1.6 3.2 0.00 0.00 0.00 65 1010.5
20260509174622 26 214 8.0 11.3 0.00 0.00 0.00 64 1010.8
20260509174118 25 226 0.0 0.0 0.00 0.00 0.00 63 1010.6
20260509173613 25 288 1.6 3.2 0.00 0.00 0.00 64 1010.9
20260509173104 25 213 1.6 1.6 0.00 0.00 0.00 64 1010.6
20260509172601 25 214 1.6 3.2 0.00 0.00 0.00 69 1011.1
20260509172057 25 232 3.2 6.4 0.00 0.00 0.00 74 1011.1
20260509171553 25 230 3.2 3.2 0.00 0.00 0.00 70 1011.0
20260509171049 23 220 6.4 6.4 0.00 0.00 0.00 70 1010.9
20260509170545 24 228 3.2 3.2 0.00 0.00 0.00 71 1011.0
20260509170041 23 224 4.8 4.8 0.00 0.00 0.00 72 1011.0
20260509165540 23 180 0.0 0.0 0.00 0.00 0.00 76 1010.9
20260509165035 23 204 3.2 3.2 0.00 0.00 0.00 75 1011.0
20260509164532 23 240 3.2 4.8 0.00 0.00 0.00 76 1011.1
20260509164027 23 220 1.6 3.2 0.00 0.00 0.00 79 1011.1
20260509163525 23 236 3.2 3.2 0.00 0.00 0.00 80 1011.0
20260509163020 22 202 0.0 0.0 0.00 0.00 0.00 84 1010.9
20260509162518 22 213 3.2 3.2 0.00 0.00 0.00 81 1011.2
20260509162014 22 238 3.2 4.8 0.00 0.00 0.00 81 1011.2
20260509161510 21 233 3.2 4.8 0.00 0.00 0.00 81 1011.1
20260509161000 21 222 3.2 4.8 0.00 0.00 0.00 82 1011.1
20260509160455 21 208 0.0 0.0 0.00 0.00 0.00 84 1011.0
20260509155950 21 174 4.8 4.8 0.00 0.00 0.00 85 1011.1
20260509155447 21 220 6.4 6.4 0.00 0.00 0.00 84 1011.2
20260509154943 21 238 0.0 0.0 0.00 0.00 0.00 86 1011.1
20260509154439 21 227 0.0 0.0 0.00 0.00 0.00 90 1011.1
20260509153937 20 245 1.6 3.2 0.00 0.00 0.00 90 1010.9
20260509153434 19 275 1.6 1.6 0.00 0.00 0.00 92 1011.0
20260509152931 18 229 3.2 3.2 0.00 0.00 0.00 95 1011.1
20260509152427 18 235 6.4 6.4 0.00 0.00 0.00 99 1011.0
20260509151924 18 158 1.6 1.6 0.00 0.00 0.00 99 1011.0
20260509151420 18 182 1.6 1.6 0.00 0.00 0.00 99 1011.0
20260509150918 18 207 3.2 3.2 0.00 0.00 0.00 99 1011.1
20260509150416 18 207 3.2 3.2 0.00 0.00 0.00 99 1011.1
20260509145914 18 208 1.6 1.6 0.00 0.00 0.00 99 1011.1
20260509145413 17 170 0.0 0.0 0.00 0.00 0.00 99 1011.0
20260509144909 17 148 0.0 0.0 0.00 0.00 0.00 99 1010.9
20260509144406 17 174 0.0 0.0 0.00 0.00 0.00 99 1011.1
20260509143904 16 207 1.6 3.2 0.00 0.00 0.00 99 1010.8
20260509143401 16 151 0.0 0.0 0.00 0.00 0.00 99 1010.8
20260509142857 17 165 0.0 1.6 0.00 0.00 0.00 99 1011.1
20260509142353 16 133 0.0 0.0 0.00 0.00 0.00 99 1011.0
20260509141849 16 159 0.0 0.0 0.00 0.00 0.00 99 1011.0
20260509141346 15 219 1.6 3.2 0.00 0.00 0.00 99 1010.9
20260509140842 16 207 0.0 1.6 0.00 0.00 0.00 99 1011.0
20260509140339 16 200 0.0 0.0 0.00 0.00 0.00 99 1010.8
20260509135837 15 178 0.0 0.0 0.00 0.00 0.00 99 1010.8
20260509135335 15 152 0.0 0.0 0.00 0.00 0.00 99 1010.8
20260509134832 15 128 0.0 0.0 0.00 0.00 0.00 99 1010.7
20260509134329 15 157 0.0 0.0 0.00 0.00 0.00 99 1010.4
20260509133826 15 138 0.0 0.0 0.00 0.00 0.00 99 1010.6
20260509133322 15 115 0.0 0.0 0.00 0.00 0.00 99 1010.6
20260509132822 14 127 0.0 0.0 0.00 0.00 0.00 99 1010.7
20260509132320 14 138 0.0 0.0 0.00 0.00 0.00 99 1010.5